DW4879 Weather Reports


Display with metric or nautical units.
time (UTC)temp
F
wind
direction
speed
MPH
gust
MPH
rain 1hr
in
rain 24hr
in
rain mn
in
humidity
%
barometer
mb
20260903082054 63 61 0.0 2.0 0.00 0.00 0.00 56 1022.7
20260903081602 63 61 0.0 3.0 0.00 0.00 0.00 56 1022.8
20260903081054 63 73 2.0 4.0 0.00 0.00 0.00 56 1022.8
20260903080545 63 32 2.0 4.0 0.00 0.00 0.00 55 1022.8
20260903080053 63 101 2.0 4.0 0.00 0.00 0.00 55 1022.7
20260903075601 63 123 2.0 6.0 0.00 0.00 0.00 55 1022.7
20260903075003 63 115 3.0 6.0 0.00 0.00 0.00 55 1022.8
20260903074559 63 134 3.0 6.0 0.00 0.00 0.00 55 1022.8
20260903074004 64 123 3.0 6.0 0.00 0.00 0.00 55 1022.7
20260903073601 64 131 4.0 6.0 0.00 0.00 0.00 54 1022.7
20260903073003 64 113 3.0 4.0 0.00 0.00 0.00 54 1022.7
20260903072600 64 119 3.0 4.0 0.00 0.00 0.00 54 1022.7
20260903072052 64 96 2.0 4.0 0.00 0.00 0.00 54 1022.8
20260903071603 64 95 2.0 4.0 0.00 0.00 0.00 53 1022.8
20260903071054 64 75 1.0 3.0 0.00 0.00 0.00 53 1022.7
20260903070541 64 5 0.0 3.0 0.00 0.00 0.00 53 1022.7
20260903070050 64 80 1.0 3.0 0.00 0.00 0.00 53 1022.6
20260903065558 65 36 1.0 4.0 0.00 0.00 0.00 53 1022.5
20260903065000 65 67 1.0 4.0 0.00 0.00 0.00 52 1022.5
20260903064556 65 100 2.0 4.0 0.00 0.00 0.00 52 1022.5
20260903064103 65 96 2.0 3.0 0.00 0.00 0.00 52 1022.5
20260903063557 65 360 0.0 3.0 0.00 0.00 0.00 52 1022.6
20260903063109 65 92 0.0 5.0 0.00 0.00 0.00 52 1022.6
20260903062557 65 84 2.0 8.0 0.00 0.00 0.00 52 1022.5
20260903062047 66 102 4.0 8.0 0.00 0.00 0.00 52 1022.3
20260903061601 65 90 3.0 8.0 0.00 0.00 0.00 52 1022.3
20260903061108 66 155 3.0 8.0 0.00 0.00 0.00 52 1022.4
20260903060505 66 96 3.0 7.0 0.00 0.00 0.00 51 1022.4
20260903060103 66 91 4.0 7.0 0.00 0.00 0.00 51 1022.3
20260903055506 66 88 3.0 6.0 0.00 0.00 0.00 51 1022.5
20260903055103 66 104 3.0 4.0 0.00 0.00 0.00 51 1022.4
20260903054553 66 134 2.0 6.0 0.00 0.00 0.00 50 1022.3
20260903054101 67 109 3.0 4.0 0.00 0.00 0.00 50 1022.5
20260903053555 67 110 2.0 4.0 0.00 0.00 0.00 49 1022.5
20260903053102 67 103 2.0 6.0 0.00 0.00 0.00 49 1022.5
20260903052555 67 114 3.0 6.0 0.00 0.00 0.00 49 1022.5
20260903052102 68 113 3.0 5.0 0.00 0.00 0.00 48 1022.5
20260903051507 68 123 1.0 2.0 0.00 0.00 0.00 47 1022.5
20260903051102 69 123 0.0 2.0 0.00 0.00 0.00 47 1022.6
20260903050502 69 84 0.0 1.0 0.00 0.00 0.00 46 1022.6
20260903050100 69 84 0.0 2.0 0.00 0.00 0.00 46 1022.5
20260903045505 69 84 1.0 5.0 0.00 0.00 0.00 46 1022.5
20260903045103 69 76 2.0 5.0 0.00 0.00 0.00 46 1022.5
20260903044554 69 84 2.0 5.0 0.00 0.00 0.00 46 1022.4
20260903044100 70 72 2.0 5.0 0.00 0.00 0.00 45 1022.4
20260903043554 70 81 2.0 5.0 0.00 0.00 0.00 45 1022.4
20260903043101 70 84 2.0 4.0 0.00 0.00 0.00 44 1022.4
20260903042555 71 113 2.0 6.0 0.00 0.00 0.00 44 1022.3
20260903042043 71 88 3.0 7.0 0.00 0.00 0.00 44 1022.3
20260903041551 71 85 3.0 5.0 0.00 0.00 0.00 44 1022.3
20260903041101 71 90 3.0 5.0 0.00 0.00 0.00 44 1022.3
20260903040502 71 74 2.0 5.0 0.00 0.00 0.00 44 1022.4
20260903040103 71 63 2.0 5.0 0.00 0.00 0.00 44 1022.4
20260903035604 71 63 2.0 5.0 0.00 0.00 0.00 44 1022.3
20260903035056 71 76 2.0 4.0 0.00 0.00 0.00 44 1022.2
20260903034604 72 80 2.0 5.0 0.00 0.00 0.00 44 1022.1
20260903034008 72 60 3.0 6.0 0.00 0.00 0.00 44 1022.1
20260903033602 72 51 3.0 6.0 0.00 0.00 0.00 44 1022.0
20260903033005 71 50 3.0 6.0 0.00 0.00 0.00 44 1021.9
20260903032603 71 49 3.0 6.0 0.00 0.00 0.00 44 1021.9
20260903032006 71 63 3.0 6.0 0.00 0.00 0.00 44 1021.9
20260903031602 71 30 2.0 4.0 0.00 0.00 0.00 43 1021.9
20260903031052 72 11 1.0 2.0 0.00 0.00 0.00 42 1021.8
20260903030600 72 351 1.0 2.0 0.00 0.00 0.00 42 1021.7
20260903030053 72 351 1.0 2.0 0.00 0.00 0.00 41 1021.7
20260903025543 73 351 1.0 2.0 0.00 0.00 0.00 41 1021.7
20260903025050 73 351 1.0 2.0 0.00 0.00 0.00 41 1021.6
20260903024559 73 315 1.0 2.0 0.00 0.00 0.00 41 1021.7
20260903024002 74 315 1.0 2.0 0.00 0.00 0.00 40 1021.6
20260903023556 74 315 1.0 2.0 0.00 0.00 0.00 40 1021.5
20260903023135 74 313 0.0 2.0 0.00 0.00 0.00 40 1021.6
20260903022555 74 311 0.0 2.0 0.00 0.00 0.00 40 1021.5
20260903022045 74 311 0.0 2.0 0.00 0.00 0.00 40 1021.5
20260903021554 75 311 1.0 2.0 0.00 0.00 0.00 39 1021.6
20260903021102 75 311 1.0 2.0 0.00 0.00 0.00 39 1021.6
20260903020507 75 311 1.0 3.0 0.00 0.00 0.00 39 1021.7
20260903020107 76 307 1.0 3.0 0.00 0.00 0.00 38 1021.5
20260903015552 76 307 1.0 4.0 0.00 0.00 0.00 38 1021.5
20260903015100 76 301 2.0 4.0 0.00 0.00 0.00 38 1021.6
20260903014553 76 302 2.0 5.0 0.00 0.00 0.00 38 1021.6
20260903014101 77 296 2.0 7.0 0.00 0.00 0.00 37 1021.7
20260903013504 77 298 3.0 7.0 0.00 0.00 0.00 37 1021.7
20260903013014 77 313 4.0 7.0 0.00 0.00 0.00 37 1021.6
20260903012503 78 306 3.0 8.0 0.00 0.00 0.00 37 1021.7
20260903012058 78 315 4.0 8.0 0.00 0.00 0.00 37 1021.6
20260903011502 78 322 4.0 8.0 0.00 0.00 0.00 37 1021.7
20260903011059 79 295 5.0 8.0 0.00 0.00 0.00 36 1021.7
20260903010502 79 322 3.0 7.0 0.00 0.00 0.00 36 1021.6
20260903010100 79 280 3.0 7.0 0.00 0.00 0.00 35 1021.7
20260903005551 80 291 3.0 7.0 0.00 0.00 0.00 35 1021.7
20260903005058 80 288 3.0 7.0 0.00 0.00 0.00 35 1021.7
20260903004551 80 271 1.0 6.0 0.00 0.00 0.00 35 1021.7
20260903004059 80 267 2.0 6.0 0.00 0.00 0.00 34 1021.8
20260903003552 80 263 3.0 8.0 0.00 0.00 0.00 34 1021.7
20260903003049 79 226 4.0 12.0 0.00 0.00 0.00 34 1021.9
20260903002551 79 298 8.0 12.0 0.00 0.00 0.00 35 1021.8
20260903002058 79 329 5.0 12.0 0.00 0.00 0.00 38 1021.8
20260903001503 79 330 4.0 12.0 0.00 0.00 0.00 36 1021.8
20260903001055 79 315 6.0 10.0 0.00 0.00 0.00 36 1021.8
20260903000603 79 350 3.0 10.0 0.00 0.00 0.00 38 1021.7
20260903000055 79 323 6.0 13.0 0.00 0.00 0.00 37 1021.8
20260902235546 79 290 8.0 15.0 0.00 0.00 0.00 36 1021.7
20260902235055 79 281 8.0 15.0 0.00 0.00 0.00 35 1021.7
20260902234605 79 312 8.0 12.0 0.00 0.00 0.00 35 1021.8
20260902234004 79 302 9.0 14.0 0.00 0.00 0.00 36 1021.8
20260902233601 79 300 8.0 16.0 0.00 0.00 0.00 35 1021.8
20260902233013 79 282 8.0 16.0 0.00 0.00 0.00 35 1021.8
20260902232602 79 290 8.0 16.0 0.00 0.00 0.00 36 1021.8
20260902232051 79 297 9.0 17.0 0.00 0.00 0.00 37 1021.8
20260902231604 79 277 11.0 20.0 0.00 0.00 0.00 38 1021.7
20260902231053 79 305 10.0 20.0 0.00 0.00 0.00 38 1021.7
20260902230545 80 267 11.0 19.0 0.00 0.00 0.00 38 1021.8
20260902230052 81 319 12.0 19.0 0.00 0.00 0.00 36 1021.7
20260902225559 82 270 11.0 19.0 0.00 0.00 0.00 31 1021.7
20260902225002 82 238 8.0 17.0 0.00 0.00 0.00 29 1021.7
20260902224556 83 292 9.0 17.0 0.00 0.00 0.00 29 1021.8
20260902224104 83 258 9.0 16.0 0.00 0.00 0.00 28 1021.7
20260902223557 85 306 9.0 18.0 0.00 0.00 0.00 27 1021.7
20260902223109 85 329 11.0 18.0 0.00 0.00 0.00 27 1021.6
20260902222600 85 281 6.0 15.0 0.00 0.00 0.00 28 1021.6
20260902222047 86 290 7.0 12.0 0.00 0.00 0.00 27 1021.6
20260902221558 86 232 5.0 10.0 0.00 0.00 0.00 27 1021.7
20260902221105 86 270 5.0 10.0 0.00 0.00 0.00 27 1021.7
20260902220505 86 329 5.0 12.0 0.00 0.00 0.00 28 1021.7
20260902220050 86 282 7.0 12.0 0.00 0.00 0.00 28 1021.9
20260902215559 86 290 5.0 15.0 0.00 0.00 0.00 27 1021.9
20260902215102 86 275 4.0 16.0 0.00 0.00 0.00 27 1022.1
20260902214554 86 259 4.0 16.0 0.00 0.00 0.00 27 1022.0
20260902214105 86 203 6.0 16.0 0.00 0.00 0.00 28 1022.0
20260902213506 87 223 4.0 10.0 0.00 0.00 0.00 27 1022.0
20260902213101 86 234 3.0 14.0 0.00 0.00 0.00 28 1022.1
20260902212503 85 218 7.0 14.0 0.00 0.00 0.00 27 1022.1
20260902212101 84 160 3.0 10.0 0.00 0.00 0.00 29 1022.1
20260902211503 83 184 6.0 15.0 0.00 0.00 0.00 29 1022.2
20260902211101 83 175 7.0 15.0 0.00 0.00 0.00 29 1022.3
20260902210552 84 187 7.0 15.0 0.00 0.00 0.00 29 1022.4
20260902210100 84 167 9.0 15.0 0.00 0.00 0.00 29 1022.4
20260902205550 84 192 6.0 11.0 0.00 0.00 0.00 29 1022.4
20260902205058 84 228 5.0 13.0 0.00 0.00 0.00 30 1022.6
20260902204503 83 201 7.0 13.0 0.00 0.00 0.00 30 1022.6
20260902204009 84 119 3.0 10.0 0.00 0.00 0.00 30 1022.7
20260902203604 84 163 1.0 10.0 0.00 0.00 0.00 30 1022.8
20260902203008 84 260 1.0 15.0 0.00 0.00 0.00 30 1022.9
20260902202604 84 198 5.0 15.0 0.00 0.00 0.00 30 1022.9
20260902202056 85 200 5.0 11.0 0.00 0.00 0.00 30 1023.0
20260902201605 84 182 3.0 6.0 0.00 0.00 0.00 30 1023.0
20260902201057 83 302 3.0 7.0 0.00 0.00 0.00 30 1023.1
20260902200604 84 302 3.0 7.0 0.00 0.00 0.00 30 1023.1
20260902200055 84 218 1.0 9.0 0.00 0.00 0.00 29 1023.2
20260902195548 85 321 1.0 9.0 0.00 0.00 0.00 29 1023.3
20260902195054 84 213 3.0 12.0 0.00 0.00 0.00 30 1023.3
20260902194600 84 304 6.0 12.0 0.00 0.00 0.00 30 1023.4
20260902194004 84 259 0.0 6.0 0.00 0.00 0.00 29 1023.5
20260902193604 83 288 1.0 8.0 0.00 0.00 0.00 30 1023.6
20260902193005 83 292 4.0 14.0 0.00 0.00 0.00 30 1023.7
20260902192602 83 230 3.0 14.0 0.00 0.00 0.00 30 1023.7
20260902192052 84 310 2.0 4.0 0.00 0.00 0.00 29 1023.8
20260902191610 84 323 1.0 9.0 0.00 0.00 0.00 28 1023.9
20260902191003 85 209 3.0 10.0 0.00 0.00 0.00 28 1023.9
20260902190511 85 311 3.0 10.0 0.00 0.00 0.00 27 1024.0
20260902190105 85 207 5.0 11.0 0.00 0.00 0.00 29 1024.0
20260902185555 84 230 4.0 14.0 0.00 0.00 0.00 30 1024.1
20260902185101 84 210 6.0 14.0 0.00 0.00 0.00 30 1024.2
20260902184557 83 277 2.0 8.0 0.00 0.00 0.00 31 1024.2
20260902184104 83 302 2.0 13.0 0.00 0.00 0.00 31 1024.3
20260902183600 82 236 3.0 13.0 0.00 0.00 0.00 32 1024.5
20260902183045 83 323 5.0 8.0 0.00 0.00 0.00 29 1024.5
20260902182554 83 215 4.0 11.0 0.00 0.00 0.00 30 1024.6
20260902182104 82 286 3.0 11.0 0.00 0.00 0.00 31 1024.6
20260902181504 83 275 2.0 7.0 0.00 0.00 0.00 31 1024.7
20260902181101 82 206 3.0 7.0 0.00 0.00 0.00 32 1024.8
20260902180503 82 287 1.0 8.0 0.00 0.00 0.00 32 1024.9
20260902180018 82 142 3.0 8.0 0.00 0.00 0.00 30 1025.0
20260902175526 82 190 4.0 8.0 0.00 0.00 0.00 34 1025.0
20260902175035 81 237 2.0 9.0 0.00 0.00 0.00 33 1025.0
20260902174552 81 169 2.0 9.0 0.00 0.00 0.00 33 1025.0
20260902174052 81 263 2.0 7.0 0.00 0.00 0.00 34 1025.1
20260902173556 80 192 4.0 7.0 0.00 0.00 0.00 35 1025.0
20260902173103 80 229 2.0 6.0 0.00 0.00 0.00 35 1025.1
20260902172506 79 204 2.0 6.0 0.00 0.00 0.00 36 1025.1
20260902172100 79 252 2.0 6.0 0.00 0.00 0.00 36 1025.1
20260902171504 79 92 2.0 7.0 0.00 0.00 0.00 37 1025.2
20260902171100 78 78 2.0 7.0 0.00 0.00 0.00 36 1025.1
20260902170550 78 153 4.0 7.0 0.00 0.00 0.00 38 1025.2
20260902170059 78 148 2.0 5.0 0.00 0.00 0.00 38 1025.3
20260902165501 77 180 3.0 7.0 0.00 0.00 0.00 37 1025.4
20260902165009 77 154 4.0 7.0 0.00 0.00 0.00 37 1025.3
20260902164517 77 209 1.0 6.0 0.00 0.00 0.00 38 1025.3
20260902164027 76 136 3.0 5.0 0.00 0.00 0.00 38 1025.4
20260902163533 76 207 2.0 4.0 0.00 0.00 0.00 38 1025.4
20260902163041 75 209 2.0 4.0 0.00 0.00 0.00 40 1025.3
20260902162532 75 67 1.0 7.0 0.00 0.00 0.00 41 1025.3
20260902162041 74 179 1.0 7.0 0.00 0.00 0.00 41 1025.4
20260902161548 74 157 3.0 7.0 0.00 0.00 0.00 41 1025.3
20260902161055 74 183 2.0 6.0 0.00 0.00 0.00 42 1025.3
20260902160548 73 138 3.0 7.0 0.00 0.00 0.00 42 1025.3
20260902160058 73 159 3.0 8.0 0.00 0.00 0.00 42 1025.2
20260902155605 72 125 4.0 8.0 0.00 0.00 0.00 43 1025.3
20260902155009 72 132 2.0 8.0 0.00 0.00 0.00 44 1025.3
20260902154610 71 85 2.0 8.0 0.00 0.00 0.00 44 1025.3
20260902154006 71 98 2.0 9.0 0.00 0.00 0.00 45 1025.4
20260902153602 70 100 3.0 8.0 0.00 0.00 0.00 45 1025.4
20260902153055 70 88 3.0 9.0 0.00 0.00 0.00 45 1025.4
20260902152603 69 85 4.0 9.0 0.00 0.00 0.00 45 1025.5
20260902152057 69 96 4.0 7.0 0.00 0.00 0.00 45 1025.5
20260902151547 68 101 3.0 7.0 0.00 0.00 0.00 47 1025.4
20260902151057 68 129 2.0 7.0 0.00 0.00 0.00 46 1025.5
20260902150547 67 123 4.0 8.0 0.00 0.00 0.00 46 1025.5
20260902150037 67 133 3.0 8.0 0.00 0.00 0.00 46 1025.5
20260902145545 66 111 4.0 8.0 0.00 0.00 0.00 46 1025.5
20260902145052 66 126 4.0 8.0 0.00 0.00 0.00 46 1025.4
20260902144559 65 100 5.0 9.0 0.00 0.00 0.00 47 1025.4
20260902144106 65 131 5.0 8.0 0.00 0.00 0.00 47 1025.4
20260902143508 64 126 3.0 9.0 0.00 0.00 0.00 47 1025.3
20260902143102 64 133 6.0 9.0 0.00 0.00 0.00 47 1025.3
20260902142505 64 123 3.0 8.0 0.00 0.00 0.00 48 1025.3
20260902142102 64 90 3.0 8.0 0.00 0.00 0.00 47 1025.3
20260902141507 63 126 3.0 8.0 0.00 0.00 0.00 48 1025.2
20260902141013 63 130 4.0 8.0 0.00 0.00 0.00 49 1025.1
20260902140520 62 67 3.0 9.0 0.00 0.00 0.00 50 1025.1
20260902140108 62 103 4.0 9.0 0.00 0.00 0.00 50 1025.0
20260902135506 61 92 4.0 9.0 0.00 0.00 0.00 52 1025.0
20260902135102 60 103 4.0 9.0 0.00 0.00 0.00 54 1025.0
20260902134504 59 117 4.0 9.0 0.00 0.00 0.00 55 1024.9
20260902134100 59 90 5.0 9.0 0.00 0.00 0.00 55 1024.9
20260902133605 59 92 5.0 9.0 0.00 0.00 0.00 55 1024.8
20260902133009 58 90 5.0 9.0 0.00 0.00 0.00 55 1024.8
20260902132504 58 113 5.0 9.0 0.00 0.00 0.00 55 1024.9
20260902132009 58 72 5.0 8.0 0.00 0.00 0.00 56 1024.9
20260902131502 58 96 4.0 7.0 0.00 0.00 0.00 56 1024.8
20260902131057 58 94 5.0 7.0 0.00 0.00 0.00 56 1024.8
20260902130606 57 84 4.0 8.0 0.00 0.00 0.00 56 1024.8
20260902130057 57 106 3.0 8.0 0.00 0.00 0.00 56 1024.7
20260902125606 57 79 4.0 10.0 0.00 0.00 0.00 56 1024.6
20260902125057 57 98 4.0 10.0 0.00 0.00 0.00 57 1024.6
20260902124547 57 94 4.0 8.0 0.00 0.00 0.00 57 1024.3
20260902124054 57 101 4.0 8.0 0.00 0.00 0.00 57 1024.5
20260902123603 57 86 4.0 7.0 0.00 0.00 0.00 57 1024.4
20260902123006 57 98 5.0 8.0 0.00 0.00 0.00 57 1024.4
20260902122600 57 100 3.0 6.0 0.00 0.00 0.00 58 1024.5
20260902122003 57 98 3.0 6.0 0.00 0.00 0.00 60 1024.4
20260902121600 57 108 3.0 6.0 0.00 0.00 0.00 62 1024.3
20260902121004 57 100 3.0 6.0 0.00 0.00 0.00 62 1024.3
20260902120602 57 107 3.0 6.0 0.00 0.00 0.00 62 1024.2
20260902120051 57 113 3.0 6.0 0.00 0.00 0.00 62 1024.3
20260902115559 57 118 4.0 6.0 0.00 0.00 0.00 61 1024.4
20260902115003 57 110 3.0 5.0 0.00 0.00 0.00 60 1024.4
20260902114512 57 101 3.0 5.0 0.00 0.00 0.00 59 1024.3
20260902114002 57 96 2.0 4.0 0.00 0.00 0.00 58 1024.4
20260902113509 57 121 3.0 6.0 0.00 0.00 0.00 58 1024.5
20260902113001 57 114 3.0 6.0 0.00 0.00 0.00 58 1024.3
20260902112557 57 108 3.0 6.0 0.00 0.00 0.00 59 1024.3
20260902112105 57 106 2.0 6.0 0.00 0.00 0.00 58 1024.2
20260902111601 57 101 3.0 8.0 0.00 0.00 0.00 57 1024.3
20260902111047 58 126 5.0 7.0 0.00 0.00 0.00 58 1024.3
20260902110557 58 89 2.0 7.0 0.00 0.00 0.00 57 1024.0
20260902105504 57 91 5.0 7.0 0.00 0.00 0.00 57 1023.9
20260902105059 57 112 4.0 7.0 0.00 0.00 0.00 58 1023.9
20260902104503 57 110 4.0 7.0 0.00 0.00 0.00 58 1024.0
20260902104101 57 103 5.0 7.0 0.00 0.00 0.00 58 1024.1
20260902103504 58 127 4.0 6.0 0.00 0.00 0.00 58 1024.1
20260902103116 58 117 4.0 6.0 0.00 0.00 0.00 58 1024.0
20260902102553 58 109 4.0 6.0 0.00 0.00 0.00 57 1023.9
20260902102059 59 115 3.0 6.0 0.00 0.00 0.00 57 1024.0
20260902101503 59 146 3.0 6.0 0.00 0.00 0.00 57 1024.0
20260902101009 59 137 3.0 5.0 0.00 0.00 0.00 56 1024.0
20260902100517 60 146 3.0 5.0 0.00 0.00 0.00 55 1023.9
20260902100126 60 131 3.0 6.0 0.00 0.00 0.00 54 1023.8
20260902095553 61 134 2.0 6.0 0.00 0.00 0.00 54 1023.8
20260902095101 61 107 3.0 6.0 0.00 0.00 0.00 52 1023.8
20260902094504 61 102 2.0 4.0 0.00 0.00 0.00 52 1023.7
20260902094101 61 106 3.0 4.0 0.00 0.00 0.00 52 1023.7
20260902093504 62 111 3.0 4.0 0.00 0.00 0.00 51 1023.8
20260902093114 62 97 2.0 4.0 0.00 0.00 0.00 51 1023.8
20260902092550 62 92 1.0 3.0 0.00 0.00 0.00 51 1023.7
20260902092058 62 102 2.0 4.0 0.00 0.00 0.00 50 1023.8
20260902091501 62 29 2.0 3.0 0.00 0.00 0.00 50 1023.8
20260902091009 62 29 1.0 4.0 0.00 0.00 0.00 50 1023.7
20260902090516 62 28 2.0 5.0 0.00 0.00 0.00 50 1023.7
20260902090028 62 34 3.0 4.0 0.00 0.00 0.00 52 1023.8
20260902085531 62 42 2.0 4.0 0.00 0.00 0.00 52 1023.8
20260902085041 62 38 2.0 4.0 0.00 0.00 0.00 54 1023.8
20260902084548 62 34 2.0 3.0 0.00 0.00 0.00 54 1023.8
20260902084058 62 34 1.0 2.0 0.00 0.00 0.00 54 1023.8
20260902083546 62 34 1.0 2.0 0.00 0.00 0.00 52 1023.8
20260902083057 62 34 1.0 1.0 0.00 0.00 0.00 50 1023.8
20260902082549 63 34 0.0 2.0 0.00 0.00 0.00 49 1023.9